FW2402 Weather Reports


time (UTC)temp
C
wind
direction
speed
KPH
gust
KPH
rain 1hr
cm
rain 24hr
cm
rain mn
cm
humidity
%
barometer
mb
20260502130517 22 0 3.2 14.5 0.00 0.00 0.00 90 1010.0
20260502123517 21 186 4.8 14.5 0.00 0.00 0.00 95 1009.3
20260502123035 21 159 4.8 11.3 0.00 0.00 0.00 95 1009.5
20260502122518 21 188 3.2 11.3 0.00 0.00 0.00 96 1009.5
20260502122018 21 190 4.8 11.3 0.00 0.00 0.00 96 1009.5
20260502121538 21 153 3.2 8.0 0.00 0.00 0.00 96 1009.5
20260502121018 20 197 1.6 6.4 0.00 0.00 0.00 96 1009.5
20260502120521 20 0 0.0 8.0 0.00 0.00 0.00 96 1009.5
20260502115517 20 184 1.6 9.7 0.00 0.00 0.00 96 1009.2
20260502115017 20 152 3.2 8.0 0.00 0.00 0.00 96 1009.1
20260502114540 20 150 1.6 6.4 0.00 0.00 0.00 96 1009.1
20260502114017 20 182 1.6 6.4 0.00 0.00 0.00 96 1009.2
20260502113517 20 160 1.6 6.4 0.00 0.00 0.00 96 1009.3
20260502113047 19 132 1.6 6.4 0.00 0.00 0.00 96 1009.1
20260502112517 19 136 0.0 8.0 0.00 0.00 0.00 96 1009.2
20260502112020 19 151 0.0 8.0 0.00 0.00 0.00 96 1009.3
20260502111535 19 175 0.0 1.6 0.00 0.00 0.00 96 1009.2
20260502111049 19 0 0.0 3.2 0.00 0.00 0.00 95 1009.3
20260502110517 19 0 0.0 4.8 0.00 0.00 0.00 95 1009.1
20260502110041 19 0 0.0 6.4 0.00 0.00 0.00 95 1008.9
20260502105521 19 161 1.6 6.4 0.00 0.00 0.00 95 1008.8
20260502105018 19 151 0.0 6.4 0.00 0.00 0.00 95 1008.9
20260502104538 19 0 0.0 6.4 0.00 0.00 0.00 95 1008.7
20260502104020 19 167 0.0 6.4 0.00 0.00 0.00 95 1008.6
20260502103517 19 0 0.0 6.4 0.00 0.00 0.00 95 1008.6
20260502103034 19 0 0.0 6.4 0.00 0.00 0.00 95 1008.6
20260502102518 19 0 0.0 6.4 0.00 0.00 0.00 95 1008.5
20260502102018 19 155 0.0 4.8 0.00 0.00 0.00 95 1008.5
20260502101537 19 0 0.0 4.8 0.00 0.00 0.00 95 1008.5
20260502101017 19 118 1.6 3.2 0.00 0.00 0.00 95 1008.4
20260502100517 18 133 0.0 3.2 0.00 0.00 0.00 95 1008.6
20260502091018 17 0 0.0 0.0 0.00 0.00 0.00 95 1009.4
20260502090517 17 0 0.0 0.0 0.00 0.00 0.00 94 1009.5
20260502090106 17 0 0.0 0.0 0.00 0.00 0.00 93 1009.6
20260502071017 18 0 0.0 0.0 0.00 0.00 0.00 94 1009.9
20260502070517 18 0 0.0 0.0 0.00 0.00 0.00 95 1009.9
20260502070048 17 0 0.0 0.0 0.00 0.00 0.00 94 1009.9
20260502065516 18 0 0.0 0.0 0.00 0.00 0.00 94 1010.0
20260502065016 18 0 0.0 0.0 0.00 0.00 0.00 94 1010.0
20260502064540 18 0 0.0 0.0 0.00 0.00 0.00 94 1010.1
20260502064017 18 0 0.0 0.0 0.00 0.00 0.00 95 1010.0
20260502063517 18 0 0.0 0.0 0.00 0.00 0.00 94 1010.1
20260502063040 18 0 0.0 0.0 0.00 0.00 0.00 94 1010.2
20260502062517 18 0 0.0 0.0 0.00 0.00 0.00 94 1010.2
20260502062019 18 0 0.0 0.0 0.00 0.00 0.00 94 1010.4
20260502061532 18 0 0.0 0.0 0.00 0.00 0.00 94 1010.5
20260502061021 18 0 0.0 0.0 0.00 0.00 0.00 94 1010.5
20260502060519 18 0 0.0 0.0 0.00 0.00 0.00 94 1010.7
20260502060042 18 0 0.0 0.0 0.00 0.00 0.00 94 1010.6
20260502055516 18 0 0.0 0.0 0.00 0.00 0.00 94 1010.5
20260502055018 18 0 0.0 0.0 0.00 0.00 0.00 95 1010.6
20260502054537 18 0 0.0 0.0 0.00 0.00 0.00 94 1010.7
20260502054018 18 0 0.0 0.0 0.00 0.00 0.00 95 1010.7
20260502053517 18 0 0.0 0.0 0.00 0.00 0.00 94 1010.8
20260502053036 18 0 0.0 0.0 0.00 0.00 0.00 94 1010.9
20260502052518 18 0 0.0 0.0 0.00 0.00 0.00 94 1010.8
20260502052018 18 0 0.0 0.0 0.00 0.00 0.00 94 1010.7
20260502051534 19 0 0.0 0.0 0.00 0.00 0.00 94 1010.8
20260502051020 18 0 0.0 0.0 0.00 0.00 0.00 94 1010.7
20260502050519 19 0 0.0 0.0 0.00 0.00 0.00 94 1010.7
20260502050040 19 0 0.0 0.0 0.00 0.00 0.00 94 1010.8
20260502045517 18 0 0.0 0.0 0.00 0.00 0.00 93 1010.9
20260502045020 19 0 0.0 0.0 0.00 0.00 0.00 94 1010.8
20260502044541 19 0 0.0 0.0 0.00 0.00 0.00 93 1010.9
20260502044016 19 0 0.0 0.0 0.00 0.00 0.00 93 1010.9
20260502043516 19 0 0.0 0.0 0.00 0.00 0.00 93 1010.7
20260502043042 19 0 0.0 0.0 0.00 0.00 0.00 93 1010.8
20260502042520 19 0 0.0 0.0 0.00 0.00 0.00 93 1010.8
20260502042019 19 0 0.0 0.0 0.00 0.00 0.00 93 1010.7
20260502041545 19 0 0.0 0.0 0.00 0.00 0.00 92 1010.6
20260502041022 20 0 0.0 0.0 0.00 0.00 0.00 91 1010.7
20260502040517 20 0 0.0 0.0 0.00 0.00 0.00 92 1010.6
20260502040036 20 0 0.0 0.0 0.00 0.00 0.00 91 1010.6
20260502035517 20 0 0.0 0.0 0.00 0.00 0.00 91 1010.7
20260502035017 20 0 0.0 0.0 0.00 0.00 0.00 91 1010.7
20260502034535 20 0 0.0 0.0 0.00 0.00 0.00 92 1010.7
20260502034019 20 0 0.0 0.0 0.00 0.00 0.00 91 1010.7
20260502033516 20 0 0.0 0.0 0.00 0.00 0.00 91 1010.6
20260502033034 20 0 0.0 0.0 0.00 0.00 0.00 90 1010.7
20260502032516 20 0 0.0 0.0 0.00 0.00 0.00 92 1010.4
20260502032016 20 0 0.0 0.0 0.00 0.00 0.00 90 1010.6
20260502031541 20 0 0.0 0.0 0.00 0.00 0.00 90 1010.7
20260502031017 20 0 0.0 0.0 0.00 0.00 0.00 90 1010.7
20260502030517 20 0 0.0 0.0 0.00 0.00 0.00 89 1010.7
20260502030042 20 0 0.0 0.0 0.00 0.00 0.00 89 1010.7
20260502025517 20 0 0.0 0.0 0.00 0.00 0.00 87 1010.7
20260502025016 21 0 0.0 0.0 0.00 0.00 0.00 86 1010.8
20260502024541 21 0 0.0 0.0 0.00 0.00 0.00 87 1010.8
20260502024017 22 0 0.0 0.0 0.00 0.00 0.00 86 1010.7
20260502023520 22 0 0.0 0.0 0.00 0.00 0.00 86 1010.7
20260502023051 22 0 0.0 0.0 0.00 0.00 0.00 87 1010.8
20260502022517 22 0 0.0 0.0 0.00 0.00 0.00 87 1010.8
20260502022016 22 0 0.0 0.0 0.00 0.00 0.00 86 1010.9
20260502021535 22 0 0.0 0.0 0.00 0.00 0.00 85 1010.9
20260502021018 22 0 0.0 1.6 0.00 0.00 0.00 85 1010.8
20260502020517 22 0 0.0 1.6 0.00 0.00 0.00 84 1010.6
20260502020032 22 0 0.0 3.2 0.00 0.00 0.00 84 1010.6
20260502015517 22 0 0.0 3.2 0.00 0.00 0.00 84 1010.7
20260502015019 22 0 1.6 4.8 0.00 0.00 0.00 83 1010.6
20260502014538 22 271 1.6 4.8 0.00 0.00 0.00 83 1010.6
20260502014019 23 271 1.6 6.4 0.00 0.00 0.00 82 1010.7
20260502013516 23 271 1.6 6.4 0.00 0.00 0.00 82 1010.6
20260502013040 23 276 1.6 9.7 0.00 0.00 0.00 81 1010.6
20260502012520 23 275 3.2 9.7 0.00 0.00 0.00 81 1010.4
20260502012016 23 274 4.8 9.7 0.00 0.00 0.00 80 1010.5
20260502011536 23 265 4.8 11.3 0.00 0.00 0.00 79 1010.5
20260502011017 23 268 6.4 11.3 0.00 0.00 0.00 79 1010.4
20260502010519 23 268 4.8 11.3 0.00 0.00 0.00 78 1010.4
20260502010036 23 280 4.8 11.3 0.00 0.00 0.00 77 1010.5
20260502005522 24 259 6.4 11.3 0.00 0.00 0.00 76 1010.5
20260502005017 24 250 4.8 14.5 0.00 0.00 0.00 75 1010.4
20260502004534 24 288 4.8 14.5 0.00 0.00 0.00 73 1010.3
20260502004016 24 263 8.0 14.5 0.00 0.00 0.00 73 1010.3
20260502003517 24 281 8.0 14.5 0.00 0.00 0.00 72 1010.3
20260502003041 25 279 6.4 16.1 0.00 0.00 0.00 70 1010.2
20260502002519 25 255 6.4 16.1 0.00 0.00 0.00 69 1010.2
20260502002021 25 300 8.0 16.1 0.00 0.00 0.00 68 1010.0
20260502001538 25 259 8.0 17.7 0.00 0.00 0.00 68 1010.0
20260502001021 25 271 8.0 17.7 0.00 0.00 0.00 66 1010.0
20260502000516 26 278 11.3 22.5 0.00 0.00 0.00 65 1009.8
20260502000059 26 258 11.3 22.5 0.00 0.00 0.00 65 1009.7
20260501235519 26 271 12.9 19.3 0.00 0.00 0.00 64 1009.6
20260501235024 26 265 11.3 22.5 0.00 0.00 0.00 63 1009.5
20260501234536 26 267 11.3 27.4 0.00 0.00 0.00 62 1009.4
20260501234020 26 261 14.5 27.4 0.00 0.00 0.00 61 1009.4
20260501233517 27 277 16.1 24.1 0.00 0.00 0.00 59 1009.2
20260501233040 27 264 14.5 24.1 0.00 0.00 0.00 59 1009.2
20260501232518 27 284 16.1 24.1 0.00 0.00 0.00 58 1009.2
20260501232020 27 268 14.5 22.5 0.00 0.00 0.00 56 1009.1
20260501231540 27 259 11.3 22.5 0.00 0.00 0.00 55 1008.9
20260501231019 28 287 11.3 19.3 0.00 0.00 0.00 53 1008.9
20260501230519 28 276 12.9 22.5 0.00 0.00 0.00 53 1008.9
20260501230040 28 261 14.5 24.1 0.00 0.00 0.00 52 1008.7
20260501225517 28 274 14.5 24.1 0.00 0.00 0.00 52 1008.7
20260501225016 28 263 12.9 24.1 0.00 0.00 0.00 53 1008.7
20260501224559 28 265 12.9 24.1 0.00 0.00 0.00 53 1008.6
20260501224016 28 265 12.9 22.5 0.00 0.00 0.00 53 1008.6
20260501223519 29 275 12.9 22.5 0.00 0.00 0.00 52 1008.5
20260501223037 30 236 14.5 25.7 0.00 0.00 0.00 52 1008.5
20260501222516 30 277 11.3 25.7 0.00 0.00 0.00 52 1008.5
20260501222016 30 259 16.1 25.7 0.00 0.00 0.00 51 1008.4
20260501221532 30 252 16.1 25.7 0.00 0.00 0.00 50 1008.3
20260501221019 30 254 16.1 25.7 0.00 0.00 0.00 49 1008.2
20260501220519 30 279 11.3 20.9 0.00 0.00 0.00 49 1008.2
20260501220044 30 275 12.9 20.9 0.00 0.00 0.00 47 1008.3
20260501215520 31 257 9.7 24.1 0.00 0.00 0.00 48 1008.1
20260501215016 31 260 16.1 24.1 0.00 0.00 0.00 47 1008.2
20260501214537 31 279 14.5 27.4 0.00 0.00 0.00 47 1008.2
20260501214016 31 246 11.3 27.4 0.00 0.00 0.00 46 1008.3
20260501213522 31 258 12.9 27.4 0.00 0.00 0.00 46 1008.2
20260501213042 31 258 9.7 22.5 0.00 0.00 0.00 45 1008.3
20260501212516 31 258 12.9 24.1 0.00 0.00 0.00 45 1008.5
20260501212023 31 281 6.4 24.1 0.00 0.00 0.00 46 1008.3
20260501211534 31 268 17.7 24.1 0.00 0.00 0.00 46 1008.4
20260501211017 31 261 14.5 24.1 0.00 0.00 0.00 46 1008.3
20260501210521 31 257 12.9 24.1 0.00 0.00 0.00 45 1008.2
20260501210034 31 269 12.9 24.1 0.00 0.00 0.00 48 1008.2
20260501205517 31 276 16.1 22.5 0.00 0.00 0.00 48 1008.2
20260501205017 30 250 14.5 19.3 0.00 0.00 0.00 47 1008.3
20260501204541 30 271 6.4 19.3 0.00 0.00 0.00 47 1008.3
20260501204017 31 242 11.3 17.7 0.00 0.00 0.00 45 1008.2
20260501203516 31 227 8.0 17.7 0.00 0.00 0.00 47 1008.2
20260501203041 31 225 8.0 19.3 0.00 0.00 0.00 46 1008.4
20260501202522 31 208 8.0 19.3 0.00 0.00 0.00 46 1008.6
20260501202018 31 262 9.7 24.1 0.00 0.00 0.00 47 1008.6
20260501201535 31 229 8.0 24.1 0.00 0.00 0.00 47 1008.6
20260501201019 32 253 9.7 24.1 0.00 0.00 0.00 45 1008.6
20260501200520 32 271 9.7 24.1 0.00 0.00 0.00 45 1008.6
20260501200043 31 262 11.3 24.1 0.00 0.00 0.00 46 1008.7
20260501195520 31 282 6.4 19.3 0.00 0.00 0.00 47 1008.8
20260501195020 31 238 8.0 19.3 0.00 0.00 0.00 46 1008.8
20260501194549 32 234 4.8 20.9 0.00 0.00 0.00 46 1008.9
20260501194020 32 265 6.4 20.9 0.00 0.00 0.00 45 1009.0
20260501193519 31 243 11.3 20.9 0.00 0.00 0.00 48 1009.0
20260501193043 32 261 8.0 20.9 0.00 0.00 0.00 46 1009.0
20260501192519 32 248 14.5 24.1 0.00 0.00 0.00 45 1009.2
20260501192021 32 239 16.1 24.1 0.00 0.00 0.00 46 1009.3
20260501191545 32 266 9.7 25.7 0.00 0.00 0.00 45 1009.3
20260501191022 33 256 6.4 25.7 0.00 0.00 0.00 45 1009.3
20260501190515 32 244 6.4 24.1 0.00 0.00 0.00 47 1009.2
20260501190037 32 297 6.4 24.1 0.00 0.00 0.00 47 1009.6
20260501185519 32 251 4.8 24.1 0.00 0.00 0.00 47 1009.7
20260501185019 32 286 11.3 24.1 0.00 0.00 0.00 46 1009.8
20260501184532 32 223 9.7 24.1 0.00 0.00 0.00 50 1009.9
20260501184022 31 267 9.7 20.9 0.00 0.00 0.00 50 1010.1
20260501183517 31 231 6.4 25.7 0.00 0.00 0.00 49 1010.1
20260501183040 32 254 12.9 25.7 0.00 0.00 0.00 45 1010.0
20260501182516 32 254 16.1 25.7 0.00 0.00 0.00 48 1010.1
20260501182020 31 277 17.7 24.1 0.00 0.00 0.00 48 1010.2
20260501181540 31 267 8.0 22.5 0.00 0.00 0.00 50 1010.2
20260501181020 30 284 14.5 25.7 0.00 0.00 0.00 51 1010.4
20260501180520 31 256 14.5 25.7 0.00 0.00 0.00 50 1010.6
20260501180038 31 266 4.8 25.7 0.00 0.00 0.00 47 1010.6
20260501175520 32 259 14.5 25.7 0.00 0.00 0.00 47 1010.6
20260501175021 32 248 8.0 24.1 0.00 0.00 0.00 48 1010.6
20260501174540 32 252 9.7 19.3 0.00 0.00 0.00 48 1010.7
20260501174023 31 292 3.2 12.9 0.00 0.00 0.00 52 1010.8
20260501173520 31 262 4.8 16.1 0.00 0.00 0.00 50 1010.9
20260501173110 31 298 1.6 22.5 0.00 0.00 0.00 51 1010.8
20260501172520 30 258 12.9 22.5 0.00 0.00 0.00 55 1011.0
20260501172021 31 259 6.4 16.1 0.00 0.00 0.00 51 1011.0
20260501171538 30 250 6.4 17.7 0.00 0.00 0.00 56 1011.0
20260501171020 30 296 4.8 17.7 0.00 0.00 0.00 55 1011.2
20260501170520 30 248 4.8 17.7 0.00 0.00 0.00 54 1011.1
20260501170045 30 296 6.4 24.1 0.00 0.00 0.00 53 1011.0
20260501165520 31 249 11.3 24.1 0.00 0.00 0.00 51 1011.2
20260501165023 31 230 3.2 17.7 0.00 0.00 0.00 52 1011.2
20260501164541 30 252 9.7 22.5 0.00 0.00 0.00 54 1011.3
20260501164016 30 286 9.7 22.5 0.00 0.00 0.00 55 1011.3
20260501163517 30 297 4.8 20.9 0.00 0.00 0.00 56 1011.4
20260501163042 31 297 11.3 20.9 0.00 0.00 0.00 53 1011.4
20260501162521 31 224 6.4 20.9 0.00 0.00 0.00 53 1011.5
20260501162023 30 254 4.8 20.9 0.00 0.00 0.00 56 1011.5
20260501161537 29 269 6.4 22.5 0.00 0.00 0.00 61 1011.6
20260501161020 30 276 12.9 22.5 0.00 0.00 0.00 59 1011.8
20260501160520 30 275 3.2 16.1 0.00 0.00 0.00 58 1011.8
20260501160038 30 264 3.2 24.1 0.00 0.00 0.00 57 1012.0
20260501155521 29 273 11.3 24.1 0.00 0.00 0.00 60 1012.1
20260501155020 29 256 8.0 19.3 0.00 0.00 0.00 62 1012.1
20260501154546 28 241 14.5 20.9 0.00 0.00 0.00 63 1012.0
20260501154020 29 245 8.0 22.5 0.00 0.00 0.00 63 1012.0
20260501153520 28 286 12.9 22.5 0.00 0.00 0.00 65 1012.1
20260501153036 29 257 6.4 17.7 0.00 0.00 0.00 63 1012.0
20260501152520 28 282 8.0 17.7 0.00 0.00 0.00 63 1012.0
20260501152019 28 313 9.7 20.9 0.00 0.00 0.00 65 1012.0
20260501151541 28 257 12.9 24.1 0.00 0.00 0.00 66 1012.0
20260501151020 28 247 14.5 24.1 0.00 0.00 0.00 66 1012.0
20260501150520 28 220 3.2 19.3 0.00 0.00 0.00 69 1012.0